| time (UTC) | temp F | wind direction | speed MPH | gust MPH | rain 1hr in | rain 24hr in | rain mn in | humidity % | barometer mb |
| 20260510185015 | 91 | 122 | 6.0 | 0.0 | 0.00 | 0.00 | 0.00 | 28 | 1014.6 |
| 20260510184511 | 91 | 45 | 7.0 | 0.0 | 0.00 | 0.00 | 0.00 | 28 | 1014.6 |
| 20260510184014 | 91 | 38 | 5.0 | 0.0 | 0.00 | 0.00 | 0.00 | 28 | 1014.6 |
| 20260510183511 | 91 | 61 | 4.0 | 0.0 | 0.00 | 0.00 | 0.00 | 28 | 1014.6 |
| 20260510183013 | 91 | 299 | 5.0 | 0.0 | 0.00 | 0.00 | 0.00 | 28 | 1014.6 |
| 20260510182515 | 90 | 15 | 5.0 | 0.0 | 0.00 | 0.00 | 0.00 | 28 | 1014.6 |
| 20260510181943 | 90 | 70 | 5.0 | 0.0 | 0.00 | 0.00 | 0.00 | 29 | 1014.6 |
| 20260510181512 | 89 | 116 | 7.0 | 0.0 | 0.00 | 0.00 | 0.00 | 30 | 1014.6 |
| 20260510181013 | 89 | 208 | 6.0 | 0.0 | 0.00 | 0.00 | 0.00 | 29 | 1014.6 |
| 20260510180441 | 89 | 137 | 6.0 | 0.0 | 0.00 | 0.00 | 0.00 | 29 | 1014.6 |
| 20260510180013 | 89 | 163 | 6.0 | 0.0 | 0.00 | 0.00 | 0.00 | 29 | 1014.6 |
| 20260510175511 | 88 | 144 | 5.0 | 0.0 | 0.00 | 0.00 | 0.00 | 29 | 1014.6 |
| 20260510175013 | 88 | 284 | 4.0 | 0.0 | 0.00 | 0.00 | 0.00 | 29 | 1014.6 |
| 20260510174514 | 87 | 132 | 3.0 | 0.0 | 0.00 | 0.00 | 0.00 | 30 | 1014.6 |
| 20260510174011 | 87 | 99 | 4.0 | 0.0 | 0.00 | 0.00 | 0.00 | 30 | 1014.6 |
| 20260510173511 | 86 | 77 | 4.0 | 0.0 | 0.00 | 0.00 | 0.00 | 30 | 1014.6 |
| 20260510173009 | 86 | 35 | 4.0 | 0.0 | 0.00 | 0.00 | 0.00 | 29 | 1014.6 |
| 20260510172514 | 85 | 354 | 0.0 | 0.0 | 0.00 | 0.00 | 0.00 | 29 | 1014.9 |
| 20260510172014 | 84 | 267 | 4.0 | 0.0 | 0.00 | 0.00 | 0.00 | 31 | 1014.6 |
| 20260510171513 | 83 | 108 | 5.0 | 0.0 | 0.00 | 0.00 | 0.00 | 32 | 1014.6 |
| 20260510170941 | 83 | 143 | 5.0 | 0.0 | 0.00 | 0.00 | 0.00 | 31 | 1014.9 |
| 20260510170513 | 83 | 140 | 6.0 | 0.0 | 0.00 | 0.00 | 0.00 | 32 | 1014.9 |
| 20260510170017 | 83 | 162 | 5.0 | 0.0 | 0.00 | 0.00 | 0.00 | 33 | 1014.9 |
| 20260510165512 | 83 | 66 | 5.0 | 0.0 | 0.00 | 0.00 | 0.00 | 35 | 1014.6 |
| 20260510165012 | 82 | 29 | 4.0 | 0.0 | 0.00 | 0.00 | 0.00 | 34 | 1014.9 |
| 20260510164514 | 82 | 156 | 4.0 | 0.0 | 0.00 | 0.00 | 0.00 | 33 | 1014.9 |
| 20260510164012 | 82 | 154 | 4.0 | 0.0 | 0.00 | 0.00 | 0.00 | 34 | 1014.9 |
| 20260510163515 | 80 | 143 | 4.0 | 0.0 | 0.00 | 0.00 | 0.00 | 36 | 1014.9 |
| 20260510163013 | 80 | 126 | 4.0 | 0.0 | 0.00 | 0.00 | 0.00 | 41 | 1014.9 |
| 20260510162513 | 79 | 144 | 4.0 | 0.0 | 0.00 | 0.00 | 0.00 | 41 | 1014.9 |
| 20260510161944 | 79 | 291 | 4.0 | 0.0 | 0.00 | 0.00 | 0.00 | 44 | 1014.9 |
| 20260510161510 | 79 | 240 | 4.0 | 0.0 | 0.00 | 0.00 | 0.00 | 46 | 1014.9 |
| 20260510160943 | 78 | 98 | 4.0 | 0.0 | 0.00 | 0.00 | 0.00 | 47 | 1014.9 |
| 20260510160512 | 77 | 71 | 0.0 | 0.0 | 0.00 | 0.00 | 0.00 | 48 | 1014.9 |
| 20260510160014 | 76 | 69 | 0.0 | 0.0 | 0.00 | 0.00 | 0.00 | 50 | 1014.9 |
| 20260510155515 | 75 | 55 | 1.0 | 0.0 | 0.00 | 0.00 | 0.00 | 50 | 1014.9 |
| 20260510154938 | 74 | 99 | 3.0 | 0.0 | 0.00 | 0.00 | 0.00 | 51 | 1014.9 |
| 20260510154511 | 74 | 353 | 3.0 | 0.0 | 0.00 | 0.00 | 0.00 | 50 | 1014.9 |
| 20260510154014 | 73 | 353 | 4.0 | 0.0 | 0.00 | 0.00 | 0.00 | 51 | 1014.9 |
| 20260510153514 | 72 | 32 | 4.0 | 0.0 | 0.00 | 0.00 | 0.00 | 53 | 1014.9 |
| 20260510153013 | 71 | 320 | 4.0 | 0.0 | 0.00 | 0.00 | 0.00 | 53 | 1014.9 |
| 20260510152512 | 71 | 16 | 5.0 | 0.0 | 0.00 | 0.00 | 0.00 | 52 | 1014.9 |
| 20260510152013 | 71 | 326 | 3.0 | 0.0 | 0.00 | 0.00 | 0.00 | 55 | 1014.9 |
| 20260510151512 | 70 | 29 | 3.0 | 0.0 | 0.00 | 0.00 | 0.00 | 55 | 1014.9 |
| 20260510151013 | 70 | 346 | 3.0 | 0.0 | 0.00 | 0.00 | 0.00 | 56 | 1014.9 |
| 20260510150517 | 69 | 343 | 0.0 | 0.0 | 0.00 | 0.00 | 0.00 | 55 | 1015.2 |
| 20260510150012 | 69 | 356 | 0.0 | 0.0 | 0.00 | 0.00 | 0.00 | 56 | 1014.9 |
| 20260510145513 | 69 | 350 | 0.0 | 0.0 | 0.00 | 0.00 | 0.00 | 55 | 1014.9 |
| 20260510145015 | 69 | 338 | 1.0 | 0.0 | 0.00 | 0.00 | 0.00 | 57 | 1014.9 |
| 20260510144513 | 68 | 329 | 3.0 | 0.0 | 0.00 | 0.00 | 0.00 | 57 | 1014.9 |
| 20260510144013 | 68 | 42 | 3.0 | 0.0 | 0.00 | 0.00 | 0.00 | 58 | 1014.9 |
| 20260510143514 | 67 | 335 | 0.0 | 0.0 | 0.00 | 0.00 | 0.00 | 60 | 1014.9 |
| 20260510143012 | 66 | 295 | 0.0 | 0.0 | 0.00 | 0.00 | 0.00 | 61 | 1014.9 |
| 20260510142513 | 66 | 56 | 0.0 | 0.0 | 0.00 | 0.00 | 0.00 | 62 | 1015.2 |
| 20260510142014 | 65 | 321 | 0.0 | 0.0 | 0.00 | 0.00 | 0.00 | 64 | 1015.2 |
| 20260510141512 | 64 | 21 | 0.0 | 0.0 | 0.00 | 0.00 | 0.00 | 65 | 1015.2 |
| 20260510141011 | 64 | 316 | 0.0 | 0.0 | 0.00 | 0.00 | 0.00 | 67 | 1015.2 |
| 20260510140513 | 63 | 173 | 0.0 | 0.0 | 0.00 | 0.00 | 0.00 | 67 | 1015.2 |
| 20260510140012 | 62 | 118 | 0.0 | 0.0 | 0.00 | 0.00 | 0.00 | 69 | 1015.2 |
| 20260510135510 | 61 | 318 | 0.0 | 0.0 | 0.00 | 0.00 | 0.00 | 71 | 1014.9 |
| 20260510135010 | 60 | 311 | 0.0 | 0.0 | 0.00 | 0.00 | 0.00 | 71 | 1014.9 |
| 20260510134511 | 59 | 355 | 0.0 | 0.0 | 0.00 | 0.00 | 0.00 | 72 | 1014.9 |
| 20260510134014 | 58 | 29 | 0.0 | 0.0 | 0.00 | 0.00 | 0.00 | 72 | 1014.9 |
| 20260510133441 | 56 | 242 | 0.0 | 0.0 | 0.00 | 0.00 | 0.00 | 73 | 1014.9 |
| 20260510133012 | 55 | 308 | 0.0 | 0.0 | 0.00 | 0.00 | 0.00 | 75 | 1014.6 |
| 20260510132511 | 53 | 289 | 0.0 | 0.0 | 0.00 | 0.00 | 0.00 | 76 | 1014.6 |
| 20260510132011 | 53 | 291 | 0.0 | 0.0 | 0.00 | 0.00 | 0.00 | 76 | 1014.6 |
| 20260510131512 | 52 | 289 | 0.0 | 0.0 | 0.00 | 0.00 | 0.00 | 74 | 1014.6 |
| 20260510131012 | 52 | 275 | 0.0 | 0.0 | 0.00 | 0.00 | 0.00 | 74 | 1014.2 |
| 20260510130514 | 52 | 261 | 0.0 | 0.0 | 0.00 | 0.00 | 0.00 | 74 | 1014.2 |
| 20260510130014 | 53 | 268 | 0.0 | 0.0 | 0.00 | 0.00 | 0.00 | 74 | 1014.2 |
| 20260510125511 | 53 | 276 | 0.0 | 0.0 | 0.00 | 0.00 | 0.00 | 73 | 1014.2 |
| 20260510125014 | 53 | 284 | 0.0 | 0.0 | 0.00 | 0.00 | 0.00 | 73 | 1014.2 |
| 20260510124513 | 53 | 278 | 0.0 | 0.0 | 0.00 | 0.00 | 0.00 | 73 | 1014.2 |
| 20260510123938 | 53 | 299 | 0.0 | 0.0 | 0.00 | 0.00 | 0.00 | 74 | 1014.2 |
| 20260510123448 | 53 | 305 | 0.0 | 0.0 | 0.00 | 0.00 | 0.00 | 74 | 1014.2 |
| 20260510122943 | 53 | 311 | 0.0 | 0.0 | 0.00 | 0.00 | 0.00 | 73 | 1014.2 |
| 20260510122443 | 53 | 290 | 0.0 | 0.0 | 0.00 | 0.00 | 0.00 | 72 | 1014.2 |
| 20260510121943 | 53 | 270 | 0.0 | 0.0 | 0.00 | 0.00 | 0.00 | 72 | 1014.2 |
| 20260510121443 | 54 | 259 | 0.0 | 0.0 | 0.00 | 0.00 | 0.00 | 72 | 1014.2 |
| 20260510120943 | 54 | 218 | 0.0 | 0.0 | 0.00 | 0.00 | 0.00 | 71 | 1014.2 |
| 20260510120543 | 54 | 292 | 0.0 | 0.0 | 0.00 | 0.00 | 0.00 | 71 | 1014.2 |
| 20260510120044 | 54 | 266 | 0.0 | 0.0 | 0.00 | 0.00 | 0.00 | 71 | 1014.2 |
| 20260510115544 | 54 | 317 | 0.0 | 0.0 | 0.00 | 0.00 | 0.00 | 72 | 1014.2 |
| 20260510114945 | 54 | 274 | 0.0 | 0.0 | 0.00 | 0.00 | 0.00 | 72 | 1014.2 |
| 20260510114448 | 53 | 304 | 0.0 | 0.0 | 0.00 | 0.00 | 0.00 | 71 | 1014.2 |
| 20260510114042 | 53 | 248 | 0.0 | 0.0 | 0.00 | 0.00 | 0.00 | 70 | 1014.2 |
| 20260510113542 | 53 | 306 | 0.0 | 0.0 | 0.00 | 0.00 | 0.00 | 70 | 1014.2 |
| 20260510113043 | 54 | 295 | 0.0 | 0.0 | 0.00 | 0.00 | 0.00 | 70 | 1014.2 |
| 20260510112542 | 54 | 268 | 0.0 | 0.0 | 0.00 | 0.00 | 0.00 | 69 | 1014.2 |
| 20260510112041 | 54 | 287 | 0.0 | 0.0 | 0.00 | 0.00 | 0.00 | 67 | 1014.2 |
| 20260510111543 | 54 | 264 | 0.0 | 0.0 | 0.00 | 0.00 | 0.00 | 66 | 1014.2 |
| 20260510111044 | 55 | 287 | 0.0 | 0.0 | 0.00 | 0.00 | 0.00 | 66 | 1014.2 |
| 20260510110542 | 55 | 283 | 0.0 | 0.0 | 0.00 | 0.00 | 0.00 | 66 | 1014.2 |
| 20260510105942 | 55 | 259 | 0.0 | 0.0 | 0.00 | 0.00 | 0.00 | 66 | 1014.2 |
| 20260510105541 | 56 | 295 | 0.0 | 0.0 | 0.00 | 0.00 | 0.00 | 66 | 1014.2 |
| 20260510104942 | 56 | 308 | 0.0 | 0.0 | 0.00 | 0.00 | 0.00 | 67 | 1014.2 |
| 20260510104540 | 55 | 290 | 0.0 | 0.0 | 0.00 | 0.00 | 0.00 | 67 | 1014.2 |
| 20260510103940 | 55 | 301 | 0.0 | 0.0 | 0.00 | 0.00 | 0.00 | 66 | 1014.2 |
| 20260510103541 | 55 | 300 | 0.0 | 0.0 | 0.00 | 0.00 | 0.00 | 66 | 1014.2 |
| 20260510103042 | 55 | 264 | 0.0 | 0.0 | 0.00 | 0.00 | 0.00 | 64 | 1014.2 |
| 20260510102540 | 56 | 282 | 0.0 | 0.0 | 0.00 | 0.00 | 0.00 | 65 | 1014.2 |
| 20260510102041 | 56 | 283 | 0.0 | 0.0 | 0.00 | 0.00 | 0.00 | 64 | 1014.2 |
| 20260510101440 | 56 | 289 | 0.0 | 0.0 | 0.00 | 0.00 | 0.00 | 64 | 1014.2 |
| 20260510100939 | 56 | 232 | 0.0 | 0.0 | 0.00 | 0.00 | 0.00 | 63 | 1014.2 |
| 20260510100441 | 57 | 301 | 0.0 | 0.0 | 0.00 | 0.00 | 0.00 | 63 | 1014.2 |
| 20260510100041 | 57 | 306 | 0.0 | 0.0 | 0.00 | 0.00 | 0.00 | 63 | 1014.2 |
| 20260510095439 | 57 | 304 | 0.0 | 0.0 | 0.00 | 0.00 | 0.00 | 63 | 1014.2 |
| 20260510095040 | 57 | 305 | 0.0 | 0.0 | 0.00 | 0.00 | 0.00 | 63 | 1014.2 |
| 20260510094540 | 57 | 283 | 0.0 | 0.0 | 0.00 | 0.00 | 0.00 | 63 | 1014.2 |
| 20260510094038 | 57 | 310 | 0.0 | 0.0 | 0.00 | 0.00 | 0.00 | 62 | 1014.6 |
| 20260510093539 | 57 | 302 | 0.0 | 0.0 | 0.00 | 0.00 | 0.00 | 62 | 1014.2 |
| 20260510093039 | 57 | 336 | 0.0 | 0.0 | 0.00 | 0.00 | 0.00 | 61 | 1014.6 |
| 20260510092439 | 57 | 306 | 0.0 | 0.0 | 0.00 | 0.00 | 0.00 | 61 | 1014.2 |
| 20260510091937 | 57 | 289 | 0.0 | 0.0 | 0.00 | 0.00 | 0.00 | 60 | 1014.6 |
| 20260510091440 | 58 | 298 | 0.0 | 0.0 | 0.00 | 0.00 | 0.00 | 61 | 1014.6 |
| 20260510090945 | 58 | 298 | 0.0 | 0.0 | 0.00 | 0.00 | 0.00 | 60 | 1014.6 |
| 20260510090441 | 58 | 298 | 0.0 | 0.0 | 0.00 | 0.00 | 0.00 | 60 | 1014.6 |
| 20260510085938 | 58 | 288 | 0.0 | 0.0 | 0.00 | 0.00 | 0.00 | 61 | 1014.6 |
| 20260510085438 | 57 | 308 | 0.0 | 0.0 | 0.00 | 0.00 | 0.00 | 61 | 1014.6 |
| 20260510084938 | 57 | 286 | 0.0 | 0.0 | 0.00 | 0.00 | 0.00 | 59 | 1014.6 |
| 20260510084439 | 58 | 276 | 0.0 | 0.0 | 0.00 | 0.00 | 0.00 | 60 | 1014.6 |
| 20260510083939 | 58 | 289 | 0.0 | 0.0 | 0.00 | 0.00 | 0.00 | 60 | 1014.6 |
| 20260510083438 | 58 | 276 | 0.0 | 0.0 | 0.00 | 0.00 | 0.00 | 59 | 1014.6 |
| 20260510082937 | 58 | 291 | 0.0 | 0.0 | 0.00 | 0.00 | 0.00 | 59 | 1014.6 |
| 20260510082436 | 58 | 304 | 0.0 | 0.0 | 0.00 | 0.00 | 0.00 | 59 | 1014.6 |
| 20260510081936 | 58 | 289 | 0.0 | 0.0 | 0.00 | 0.00 | 0.00 | 59 | 1014.6 |
| 20260510081438 | 58 | 297 | 0.0 | 0.0 | 0.00 | 0.00 | 0.00 | 58 | 1014.9 |
| 20260510080936 | 59 | 280 | 0.0 | 0.0 | 0.00 | 0.00 | 0.00 | 57 | 1014.6 |
| 20260510080436 | 59 | 291 | 0.0 | 0.0 | 0.00 | 0.00 | 0.00 | 57 | 1014.6 |
| 20260510075938 | 59 | 261 | 0.0 | 0.0 | 0.00 | 0.00 | 0.00 | 57 | 1014.9 |
| 20260510075437 | 59 | 320 | 0.0 | 0.0 | 0.00 | 0.00 | 0.00 | 57 | 1014.9 |
| 20260510074936 | 60 | 301 | 0.0 | 0.0 | 0.00 | 0.00 | 0.00 | 58 | 1014.9 |
| 20260510074436 | 60 | 292 | 0.0 | 0.0 | 0.00 | 0.00 | 0.00 | 57 | 1014.9 |
| 20260510073936 | 61 | 145 | 0.0 | 0.0 | 0.00 | 0.00 | 0.00 | 57 | 1014.9 |
| 20260510073437 | 61 | 290 | 0.0 | 0.0 | 0.00 | 0.00 | 0.00 | 57 | 1014.9 |
| 20260510072935 | 61 | 286 | 0.0 | 0.0 | 0.00 | 0.00 | 0.00 | 57 | 1014.9 |
| 20260510072435 | 61 | 295 | 0.0 | 0.0 | 0.00 | 0.00 | 0.00 | 58 | 1014.9 |
| 20260510071934 | 61 | 286 | 0.0 | 0.0 | 0.00 | 0.00 | 0.00 | 58 | 1014.9 |
| 20260510071433 | 61 | 310 | 0.0 | 0.0 | 0.00 | 0.00 | 0.00 | 56 | 1015.2 |
| 20260510070936 | 62 | 242 | 0.0 | 0.0 | 0.00 | 0.00 | 0.00 | 55 | 1015.2 |
| 20260510070433 | 62 | 287 | 0.0 | 0.0 | 0.00 | 0.00 | 0.00 | 55 | 1015.2 |
| 20260510065934 | 62 | 357 | 0.0 | 0.0 | 0.00 | 0.00 | 0.00 | 55 | 1015.2 |
| 20260510065433 | 62 | 319 | 3.0 | 0.0 | 0.00 | 0.00 | 0.00 | 54 | 1014.9 |
| 20260510064932 | 62 | 294 | 1.0 | 0.0 | 0.00 | 0.00 | 0.00 | 53 | 1015.2 |
| 20260510064433 | 62 | 307 | 1.0 | 0.0 | 0.00 | 0.00 | 0.00 | 53 | 1015.2 |
| 20260510063933 | 62 | 297 | 3.0 | 0.0 | 0.00 | 0.00 | 0.00 | 52 | 1015.2 |
| 20260510063441 | 62 | 297 | 3.0 | 0.0 | 0.00 | 0.00 | 0.00 | 53 | 1015.2 |
| 20260510062942 | 62 | 285 | 0.0 | 0.0 | 0.00 | 0.00 | 0.00 | 50 | 1014.9 |
| 20260510062431 | 63 | 286 | 0.0 | 0.0 | 0.00 | 0.00 | 0.00 | 49 | 1014.9 |
| 20260510061941 | 64 | 227 | 0.0 | 0.0 | 0.00 | 0.00 | 0.00 | 48 | 1014.9 |
| 20260510061442 | 64 | 142 | 0.0 | 0.0 | 0.00 | 0.00 | 0.00 | 48 | 1015.2 |
| 20260510060936 | 64 | 274 | 3.0 | 0.0 | 0.00 | 0.00 | 0.00 | 47 | 1014.9 |
| 20260510060438 | 63 | 267 | 1.0 | 0.0 | 0.00 | 0.00 | 0.00 | 48 | 1014.9 |
| 20260510055935 | 64 | 300 | 0.0 | 0.0 | 0.00 | 0.00 | 0.00 | 50 | 1014.9 |
| 20260510055435 | 64 | 310 | 0.0 | 0.0 | 0.00 | 0.00 | 0.00 | 48 | 1014.9 |
| 20260510054935 | 65 | 145 | 0.0 | 0.0 | 0.00 | 0.00 | 0.00 | 47 | 1014.9 |
| 20260510054438 | 65 | 267 | 0.0 | 0.0 | 0.00 | 0.00 | 0.00 | 45 | 1014.9 |
| 20260510053935 | 67 | 286 | 0.0 | 0.0 | 0.00 | 0.00 | 0.00 | 45 | 1014.9 |
| 20260510053436 | 68 | 289 | 0.0 | 0.0 | 0.00 | 0.00 | 0.00 | 45 | 1014.9 |
| 20260510052932 | 68 | 241 | 0.0 | 0.0 | 0.00 | 0.00 | 0.00 | 45 | 1014.9 |
| 20260510052439 | 68 | 290 | 0.0 | 0.0 | 0.00 | 0.00 | 0.00 | 43 | 1014.9 |
| 20260510051941 | 68 | 250 | 0.0 | 0.0 | 0.00 | 0.00 | 0.00 | 42 | 1014.9 |
| 20260510051441 | 68 | 296 | 0.0 | 0.0 | 0.00 | 0.00 | 0.00 | 40 | 1014.9 |
| 20260510050941 | 69 | 39 | 3.0 | 0.0 | 0.00 | 0.00 | 0.00 | 40 | 1014.9 |
| 20260510050442 | 69 | 277 | 4.0 | 0.0 | 0.00 | 0.00 | 0.00 | 40 | 1014.9 |
| 20260510045937 | 69 | 210 | 5.0 | 0.0 | 0.00 | 0.00 | 0.00 | 38 | 1014.9 |
| 20260510045441 | 69 | 242 | 5.0 | 0.0 | 0.00 | 0.00 | 0.00 | 38 | 1014.9 |
| 20260510044940 | 69 | 244 | 5.0 | 0.0 | 0.00 | 0.00 | 0.00 | 36 | 1014.9 |
| 20260510044440 | 69 | 273 | 5.0 | 0.0 | 0.00 | 0.00 | 0.00 | 36 | 1014.9 |
| 20260510043942 | 70 | 231 | 6.0 | 0.0 | 0.00 | 0.00 | 0.00 | 35 | 1014.6 |
| 20260510043427 | 70 | 239 | 6.0 | 0.0 | 0.00 | 0.00 | 0.00 | 35 | 1014.6 |
| 20260510042939 | 70 | 273 | 5.0 | 0.0 | 0.00 | 0.00 | 0.00 | 35 | 1014.6 |
| 20260510042435 | 70 | 259 | 5.0 | 0.0 | 0.00 | 0.00 | 0.00 | 35 | 1014.6 |
| 20260510041937 | 70 | 208 | 6.0 | 0.0 | 0.00 | 0.00 | 0.00 | 34 | 1014.6 |
| 20260510041437 | 70 | 260 | 6.0 | 0.0 | 0.00 | 0.00 | 0.00 | 35 | 1014.6 |
| 20260510040942 | 70 | 254 | 6.0 | 0.0 | 0.00 | 0.00 | 0.00 | 35 | 1014.6 |
| 20260510040438 | 70 | 226 | 7.0 | 0.0 | 0.00 | 0.00 | 0.00 | 35 | 1014.6 |
| 20260510035941 | 70 | 121 | 6.0 | 0.0 | 0.00 | 0.00 | 0.00 | 36 | 1014.2 |
| 20260510035441 | 70 | 236 | 9.0 | 0.0 | 0.00 | 0.00 | 0.00 | 36 | 1014.2 |
| 20260510034943 | 70 | 357 | 0.0 | 0.0 | 0.00 | 0.00 | 0.00 | 36 | 1014.2 |
| 20260510034438 | 70 | 292 | 0.0 | 0.0 | 0.00 | 0.00 | 0.00 | 36 | 1014.2 |
| 20260510033940 | 70 | 324 | 0.0 | 0.0 | 0.00 | 0.00 | 0.00 | 36 | 1014.2 |
| 20260510033436 | 71 | 334 | 3.0 | 0.0 | 0.00 | 0.00 | 0.00 | 36 | 1013.9 |
| 20260510032941 | 71 | 297 | 3.0 | 0.0 | 0.00 | 0.00 | 0.00 | 35 | 1013.9 |
| 20260510032440 | 71 | 302 | 4.0 | 0.0 | 0.00 | 0.00 | 0.00 | 35 | 1013.9 |
| 20260510031937 | 71 | 293 | 4.0 | 0.0 | 0.00 | 0.00 | 0.00 | 34 | 1013.9 |
| 20260510031437 | 72 | 213 | 4.0 | 0.0 | 0.00 | 0.00 | 0.00 | 34 | 1013.9 |
| 20260510030939 | 72 | 244 | 0.0 | 0.0 | 0.00 | 0.00 | 0.00 | 34 | 1013.9 |
| 20260510030441 | 72 | 171 | 0.0 | 0.0 | 0.00 | 0.00 | 0.00 | 34 | 1013.9 |
| 20260510025941 | 72 | 179 | 6.0 | 0.0 | 0.00 | 0.00 | 0.00 | 35 | 1013.5 |
| 20260510025441 | 72 | 97 | 4.0 | 0.0 | 0.00 | 0.00 | 0.00 | 34 | 1013.5 |
| 20260510024937 | 73 | 211 | 4.0 | 0.0 | 0.00 | 0.00 | 0.00 | 34 | 1013.5 |
| 20260510024425 | 73 | 143 | 4.0 | 0.0 | 0.00 | 0.00 | 0.00 | 33 | 1013.5 |
| 20260510023935 | 74 | 302 | 4.0 | 0.0 | 0.00 | 0.00 | 0.00 | 33 | 1013.2 |
| 20260510023438 | 74 | 150 | 6.0 | 0.0 | 0.00 | 0.00 | 0.00 | 33 | 1013.2 |
| 20260510022925 | 75 | 104 | 6.0 | 0.0 | 0.00 | 0.00 | 0.00 | 32 | 1013.2 |
| 20260510022441 | 76 | 103 | 8.0 | 0.0 | 0.00 | 0.00 | 0.00 | 32 | 1013.2 |
| 20260510021939 | 77 | 111 | 10.0 | 0.0 | 0.00 | 0.00 | 0.00 | 32 | 1013.2 |
| 20260510021437 | 77 | 121 | 12.0 | 0.0 | 0.00 | 0.00 | 0.00 | 31 | 1013.2 |
| 20260510020940 | 77 | 118 | 12.0 | 0.0 | 0.00 | 0.00 | 0.00 | 30 | 1013.2 |
| 20260510020425 | 78 | 114 | 9.0 | 0.0 | 0.00 | 0.00 | 0.00 | 30 | 1013.2 |
| 20260510015936 | 78 | 142 | 13.0 | 0.0 | 0.00 | 0.00 | 0.00 | 30 | 1013.2 |
| 20260510015442 | 79 | 145 | 16.0 | 0.0 | 0.00 | 0.00 | 0.00 | 30 | 1013.2 |
| 20260510014936 | 79 | 179 | 15.0 | 0.0 | 0.00 | 0.00 | 0.00 | 29 | 1013.2 |
| 20260510014441 | 80 | 119 | 11.0 | 0.0 | 0.00 | 0.00 | 0.00 | 29 | 1013.2 |
| 20260510013939 | 80 | 99 | 14.0 | 0.0 | 0.00 | 0.00 | 0.00 | 30 | 1013.2 |
| 20260510013437 | 80 | 112 | 13.0 | 0.0 | 0.00 | 0.00 | 0.00 | 30 | 1012.9 |
| 20260510012939 | 81 | 102 | 14.0 | 0.0 | 0.00 | 0.00 | 0.00 | 30 | 1012.9 |
| 20260510012436 | 81 | 117 | 16.0 | 0.0 | 0.00 | 0.00 | 0.00 | 29 | 1012.9 |
| 20260510011939 | 81 | 168 | 18.0 | 0.0 | 0.00 | 0.00 | 0.00 | 29 | 1012.9 |
| 20260510011440 | 81 | 80 | 18.0 | 0.0 | 0.00 | 0.00 | 0.00 | 30 | 1012.9 |
| 20260510010938 | 82 | 104 | 13.0 | 0.0 | 0.00 | 0.00 | 0.00 | 29 | 1012.9 |
| 20260510010437 | 83 | 119 | 17.0 | 0.0 | 0.00 | 0.00 | 0.00 | 29 | 1012.9 |
| 20260510005935 | 83 | 129 | 16.0 | 0.0 | 0.00 | 0.00 | 0.00 | 29 | 1012.9 |
| 20260510005436 | 84 | 76 | 13.0 | 0.0 | 0.00 | 0.00 | 0.00 | 28 | 1012.5 |
| 20260510004939 | 84 | 143 | 12.0 | 0.0 | 0.00 | 0.00 | 0.00 | 28 | 1012.5 |
| 20260510004436 | 85 | 123 | 11.0 | 0.0 | 0.00 | 0.00 | 0.00 | 28 | 1012.5 |
| 20260510003940 | 85 | 127 | 11.0 | 0.0 | 0.00 | 0.00 | 0.00 | 28 | 1012.5 |
| 20260510003438 | 86 | 253 | 11.0 | 0.0 | 0.00 | 0.00 | 0.00 | 27 | 1012.5 |
| 20260510002935 | 86 | 180 | 11.0 | 0.0 | 0.00 | 0.00 | 0.00 | 27 | 1012.5 |
| 20260510002439 | 87 | 89 | 12.0 | 0.0 | 0.00 | 0.00 | 0.00 | 26 | 1012.5 |
| 20260510001935 | 87 | 269 | 12.0 | 0.0 | 0.00 | 0.00 | 0.00 | 25 | 1012.5 |
| 20260510001438 | 87 | 156 | 10.0 | 0.0 | 0.00 | 0.00 | 0.00 | 25 | 1012.5 |
| 20260510000937 | 88 | 135 | 12.0 | 0.0 | 0.00 | 0.00 | 0.00 | 26 | 1012.2 |
| 20260510000435 | 88 | 147 | 12.0 | 0.0 | 0.00 | 0.00 | 0.00 | 25 | 1012.2 |
| 20260509235938 | 88 | 122 | 10.0 | 0.0 | 0.00 | 0.00 | 0.00 | 26 | 1012.2 |
| 20260509235419 | 88 | 158 | 15.0 | 0.0 | 0.00 | 0.00 | 0.00 | 26 | 1012.2 |
| 20260509234940 | 89 | 151 | 11.0 | 0.0 | 0.00 | 0.00 | 0.00 | 26 | 1012.2 |
| 20260509234440 | 89 | 171 | 11.0 | 0.0 | 0.00 | 0.00 | 0.00 | 26 | 1012.2 |
| 20260509233940 | 90 | 138 | 11.0 | 0.0 | 0.00 | 0.00 | 0.00 | 25 | 1012.2 |
| 20260509233440 | 90 | 97 | 13.0 | 0.0 | 0.00 | 0.00 | 0.00 | 25 | 1012.2 |
| 20260509232919 | 90 | 115 | 13.0 | 0.0 | 0.00 | 0.00 | 0.00 | 26 | 1012.2 |
| 20260509232536 | 90 | 99 | 11.0 | 0.0 | 0.00 | 0.00 | 0.00 | 25 | 1012.2 |
| 20260509232217 | 91 | 149 | 11.0 | 0.0 | 0.00 | 0.00 | 0.00 | 25 | 1012.2 |
| 20260509231417 | 91 | 97 | 13.0 | 0.0 | 0.00 | 0.00 | 0.00 | 25 | 1012.2 |
| 20260509230940 | 91 | 116 | 12.0 | 0.0 | 0.00 | 0.00 | 0.00 | 25 | 1012.2 |
| 20260509230438 | 91 | 151 | 11.0 | 0.0 | 0.00 | 0.00 | 0.00 | 25 | 1012.2 |
| 20260509225936 | 91 | 148 | 17.0 | 0.0 | 0.00 | 0.00 | 0.00 | 25 | 1012.2 |
| 20260509225435 | 91 | 246 | 17.0 | 0.0 | 0.00 | 0.00 | 0.00 | 24 | 1012.2 |
| 20260509224940 | 92 | 133 | 13.0 | 0.0 | 0.00 | 0.00 | 0.00 | 24 | 1012.2 |
| 20260509224438 | 92 | 89 | 15.0 | 0.0 | 0.00 | 0.00 | 0.00 | 24 | 1012.2 |
| 20260509223938 | 93 | 148 | 11.0 | 0.0 | 0.00 | 0.00 | 0.00 | 24 | 1012.2 |
| 20260509223442 | 92 | 108 | 14.0 | 0.0 | 0.00 | 0.00 | 0.00 | 24 | 1012.5 |
| 20260509222939 | 92 | 133 | 14.0 | 0.0 | 0.00 | 0.00 | 0.00 | 25 | 1012.5 |
| 20260509222440 | 92 | 144 | 13.0 | 0.0 | 0.00 | 0.00 | 0.00 | 24 | 1012.5 |
| 20260509221915 | 92 | 167 | 13.0 | 0.0 | 0.00 | 0.00 | 0.00 | 25 | 1012.5 |
| 20260509221437 | 93 | 97 | 11.0 | 0.0 | 0.00 | 0.00 | 0.00 | 27 | 1012.5 |
| 20260509220939 | 93 | 159 | 13.0 | 0.0 | 0.00 | 0.00 | 0.00 | 25 | 1012.9 |
| 20260509220441 | 94 | 87 | 11.0 | 0.0 | 0.00 | 0.00 | 0.00 | 24 | 1012.9 |
| 20260509215939 | 94 | 122 | 10.0 | 0.0 | 0.00 | 0.00 | 0.00 | 24 | 1012.9 |
| 20260509215438 | 94 | 323 | 10.0 | 0.0 | 0.00 | 0.00 | 0.00 | 27 | 1012.9 |
| 20260509214942 | 95 | 308 | 9.0 | 0.0 | 0.00 | 0.00 | 0.00 | 27 | 1012.9 |
| 20260509214439 | 95 | 109 | 11.0 | 0.0 | 0.00 | 0.00 | 0.00 | 24 | 1012.9 |
| 20260509213937 | 95 | 298 | 11.0 | 0.0 | 0.00 | 0.00 | 0.00 | 25 | 1012.9 |
| 20260509213439 | 95 | 166 | 13.0 | 0.0 | 0.00 | 0.00 | 0.00 | 23 | 1012.9 |
| 20260509212940 | 95 | 169 | 13.0 | 0.0 | 0.00 | 0.00 | 0.00 | 22 | 1013.2 |
| 20260509212438 | 96 | 23 | 6.0 | 0.0 | 0.00 | 0.00 | 0.00 | 22 | 1013.2 |
| 20260509211937 | 96 | 65 | 4.0 | 0.0 | 0.00 | 0.00 | 0.00 | 21 | 1013.2 |
| 20260509211439 | 95 | 262 | 9.0 | 0.0 | 0.00 | 0.00 | 0.00 | 22 | 1013.2 |
| 20260509210944 | 95 | 157 | 7.0 | 0.0 | 0.00 | 0.00 | 0.00 | 22 | 1013.2 |
| 20260509210438 | 95 | 43 | 8.0 | 0.0 | 0.00 | 0.00 | 0.00 | 21 | 1013.2 |
| 20260509205940 | 95 | 343 | 7.0 | 0.0 | 0.00 | 0.00 | 0.00 | 21 | 1013.2 |
| 20260509205441 | 94 | 238 | 8.0 | 0.0 | 0.00 | 0.00 | 0.00 | 22 | 1013.2 |
| 20260509204941 | 95 | 97 | 7.0 | 0.0 | 0.00 | 0.00 | 0.00 | 22 | 1013.2 |
| 20260509204443 | 93 | 103 | 17.0 | 0.0 | 0.00 | 0.00 | 0.00 | 22 | 1013.2 |
| 20260509203940 | 92 | 322 | 17.0 | 0.0 | 0.00 | 0.00 | 0.00 | 22 | 1013.2 |
| 20260509203439 | 91 | 178 | 14.0 | 0.0 | 0.00 | 0.00 | 0.00 | 22 | 1013.5 |
| 20260509202938 | 91 | 108 | 12.0 | 0.0 | 0.00 | 0.00 | 0.00 | 21 | 1013.5 |
| 20260509202443 | 92 | 192 | 12.0 | 0.0 | 0.00 | 0.00 | 0.00 | 22 | 1013.5 |
| 20260509201938 | 91 | 161 | 10.0 | 0.0 | 0.00 | 0.00 | 0.00 | 23 | 1013.5 |
| 20260509201439 | 90 | 189 | 11.0 | 0.0 | 0.00 | 0.00 | 0.00 | 24 | 1013.5 |
| 20260509200938 | 90 | 143 | 14.0 | 0.0 | 0.00 | 0.00 | 0.00 | 25 | 1013.5 |
| 20260509200436 | 90 | 98 | 10.0 | 0.0 | 0.00 | 0.00 | 0.00 | 25 | 1013.5 |
| 20260509195942 | 90 | 124 | 11.0 | 0.0 | 0.00 | 0.00 | 0.00 | 25 | 1013.9 |
| 20260509195444 | 90 | 126 | 11.0 | 0.0 | 0.00 | 0.00 | 0.00 | 25 | 1013.9 |
| 20260509194936 | 89 | 102 | 10.0 | 0.0 | 0.00 | 0.00 | 0.00 | 25 | 1013.9 |
| 20260509194439 | 89 | 141 | 10.0 | 0.0 | 0.00 | 0.00 | 0.00 | 25 | 1013.9 |
| 20260509193940 | 90 | 137 | 12.0 | 0.0 | 0.00 | 0.00 | 0.00 | 25 | 1013.9 |
| 20260509193438 | 88 | 108 | 12.0 | 0.0 | 0.00 | 0.00 | 0.00 | 26 | 1014.2 |
| 20260509192942 | 89 | 107 | 10.0 | 0.0 | 0.00 | 0.00 | 0.00 | 25 | 1014.2 |
| 20260509192441 | 89 | 130 | 10.0 | 0.0 | 0.00 | 0.00 | 0.00 | 26 | 1014.2 |
| 20260509191939 | 89 | 136 | 7.0 | 0.0 | 0.00 | 0.00 | 0.00 | 25 | 1014.2 |
| 20260509191438 | 89 | 108 | 8.0 | 0.0 | 0.00 | 0.00 | 0.00 | 26 | 1014.2 |
| 20260509190940 | 89 | 173 | 9.0 | 0.0 | 0.00 | 0.00 | 0.00 | 27 | 1014.2 |
| 20260509190442 | 89 | 127 | 10.0 | 0.0 | 0.00 | 0.00 | 0.00 | 27 | 1014.2 |
| 20260509185939 | 90 | 168 | 7.0 | 0.0 | 0.00 | 0.00 | 0.00 | 27 | 1014.2 |
| 20260509185436 | 89 | 146 | 7.0 | 0.0 | 0.00 | 0.00 | 0.00 | 27 | 1014.2 |